Regional Weather Roundup
Issued by NWS

Home | Current Version | Previous Version | Text Only | Print | Product List | Glossary Off
Versions: 1 2 3 4 5 6 7 8 9 10 11 12 13 14 15 16 17 18 19 20 21 22 23 24 25 26 27 28 29 30 31 32 33 34 35 36 37 38 39 40 41 42 43 44 45 46 47 48 49 50

000
ASUS43 KOAX 170102
RWRNE

WEATHER ROUNDUP FOR NEBRASKA
NATIONAL WEATHER SERVICE OMAHA NE
700 PM CST TUE JAN 16 2018

NOTES: SATELLITE DATA IS BEING USED TO AUGMENT CLOUD COVER ABOVE
       12000 FEET.
       "FAIR" INDICATES FEW OR NO CLOUDS BELOW 12,000 FEET WITH NO
       SIGNIFICANT WEATHER AND/OR OBSTRUCTIONS TO VISIBILITY.


NEZ001>004-019>022-054>056-170200-
NEBRASKA PANHANDLE

CITY           SKY/WX    TMP DP  RH WIND       PRES   REMARKS
SCOTTSBLUFF    CLOUDY    10   3  73 SE3       30.32F
ALLIANCE       CLOUDY     8   4  83 S8        30.31F WCI  -4
CHADRON        CLOUDY    16   4  59 S8        30.31F WCI   5
GORDON         FAIR      16   3  56 SW9       30.32S WCI   5
KIMBALL        CLOUDY    19   6  55 W8        30.29S WCI   9
SIDNEY         CLOUDY    13   1  59 S9        30.34S WCI   1
$$

NEZ057>060-069>072-079>082-170200-
SOUTHWEST NEBRASKA

CITY           SKY/WX    TMP DP  RH WIND       PRES   REMARKS
NORTH PLATTE   CLOUDY    11   0  61 S6        30.48F WCI   1
IMPERIAL       CLOUDY    11  -1  58 S8        30.44F WCI  -1
LEXINGTON      CLOUDY    10   1  68 S7        30.54F WCI  -1
MCCOOK         CLOUDY     9   0  67 S6        30.53F WCI  -1
OGALLALA       CLOUDY    18   5  57 S5        30.42F WCI  11
$$

NEZ005>010-023>029-035>040-094-170200-
NORTH CENTRAL NEBRASKA

CITY           SKY/WX    TMP DP  RH WIND       PRES   REMARKS
VALENTINE      CLOUDY    12   0  58 S6        30.41F WCI   3
AINSWORTH      CLOUDY     8   1  72 S9        30.43F WCI  -5
BROKEN BOW     CLOUDY     5  -3  69 S7        30.50F WCI  -7
O`NEILL        CLOUDY     5   0  78 S6        30.53F WCI  -6
ORD            CLOUDY     6  -1  73 S3        30.55F
THEDFORD       CLOUDY    11   1  66 S6        30.44F WCI   1
$$

NEZ041-046>049-061>064-073>077-083>087-170200-
SOUTH CENTRAL NEBRASKA

CITY           SKY/WX    TMP DP  RH WIND       PRES   REMARKS
GRAND ISLAND   CLOUDY     6   0  76 SW5       30.60F WCI  -3
AURORA         CLOUDY     7   1  76 CALM      30.61F
HASTINGS       CLOUDY     8   0  69 SW5       30.60F WCI   0
HEBRON         CLOUDY     4   0  82 CALM      30.67S
HOLDREGE       CLOUDY    10   1  66 SW5       30.55F WCI   2
KEARNEY        CLOUDY     5  -1  76 S8        30.58F WCI  -8
YORK           CLOUDY     5   0  78 CALM      30.63S
$$

NEZ011>018-030>034-042>045-170200-
NORTHEAST NEBRASKA

CITY           SKY/WX    TMP DP  RH WIND       PRES   REMARKS
NORFOLK        CLOUDY     3  -2  79 S7        30.60S WCI  -9
ALBION         CLOUDY     9   2  73 CALM      30.59S
BLAIR          CLOUDY     6   1  81 CALM      30.65S
COLUMBUS       CLOUDY     3  -5  69 CALM      30.65S
FREMONT        CLOUDY     6   1  80 CALM      30.67R
TEKAMAH        CLOUDY     4  -2  76 CALM      30.70R
WAYNE          CLOUDY    -1  -4  84 CALM      30.63S
$$

NEZ050>053-065>068-078-088>093-170200-
SOUTHEAST NEBRASKA

CITY           SKY/WX    TMP DP  RH WIND       PRES   REMARKS
LINCOLN        CLOUDY     9   2  73 CALM      30.69R
OMAHA EPPLEY   CLOUDY     7   2  80 NW3       30.69S
BEATRICE       CLOUDY     8   3  78 CALM      30.67S
FALLS CITY     CLOUDY     5  -1  76 CALM      30.71S
NEBRASKA CITY  CLOUDY     6   3  85 CALM      30.68S
PLATTSMOUTH    CLOUDY     7   2  80 CALM      30.68R
$$

NEZ044-045-051>053-067-170200-
OMAHA AREA

CITY           SKY/WX    TMP DP  RH WIND       PRES   REMARKS
OMAHA EPPLEY   CLOUDY     7   2  80 NW3       30.69S
BLAIR          CLOUDY     6   1  81 CALM      30.65S
FREMONT        CLOUDY     6   1  80 CALM      30.67R
MILLARD        CLOUDY     9   3  77 CALM      30.69R
OFFUTT AFB     CLOUDY    -1  -5  82 CALM      30.68S
PLATTSMOUTH    CLOUDY     7   2  80 CALM      30.68R
WAHOO          FAIR       6   1  79 CALM      30.67R
$$




USA.gov is the U.S. government's official web portal to all federal, state and local government web resources and services.